TimePDT,TemperatureF,Dew PointF,Humidity,Sea Level PressureIn,VisibilityMPH,Wind Direction,Wind SpeedMPH,Gust SpeedMPH,PrecipitationIn,Events,Conditions,WindDirDegrees,DateUTC
12:15 AM,50.0,37.4,62,30.04,10.0,Calm,Calm,-,N/A,,Clear,0,2013-10-15 07:15:00
12:35 AM,50.0,39.2,66,30.04,10.0,Calm,Calm,-,N/A,,Clear,0,2013-10-15 07:35:00
12:55 AM,44.6,33.8,66,30.04,10.0,Calm,Calm,-,N/A,,Clear,0,2013-10-15 07:55:00
1:15 AM,46.4,35.6,66,30.04,10.0,Calm,Calm,-,N/A,,Clear,0,2013-10-15 08:15:00
1:35 AM,46.4,33.8,62,30.04,10.0,Calm,Calm,-,N/A,,Clear,0,2013-10-15 08:35:00
1:55 AM,44.6,33.8,66,30.04,10.0,Calm,Calm,-,N/A,,Clear,0,2013-10-15 08:55:00
2:15 AM,48.2,35.6,62,30.04,10.0,Calm,Calm,-,N/A,,Clear,0,2013-10-15 09:15:00
2:35 AM,46.4,37.4,71,30.04,10.0,Calm,Calm,-,N/A,,Clear,0,2013-10-15 09:35:00
2:55 AM,46.4,37.4,71,30.04,10.0,Calm,Calm,-,N/A,,Clear,0,2013-10-15 09:55:00
3:15 AM,46.4,37.4,71,30.03,10.0,Calm,Calm,-,N/A,,Clear,0,2013-10-15 10:15:00
3:35 AM,39.2,33.8,81,30.03,10.0,Calm,Calm,-,N/A,,Clear,0,2013-10-15 10:35:00
3:55 AM,41.0,35.6,81,30.03,10.0,Calm,Calm,-,N/A,,Clear,0,2013-10-15 10:55:00
4:15 AM,44.6,35.6,71,30.03,10.0,Calm,Calm,-,N/A,,Clear,0,2013-10-15 11:15:00
4:35 AM,44.6,33.8,66,30.03,10.0,Calm,Calm,-,N/A,,Clear,0,2013-10-15 11:35:00
4:55 AM,41.0,32.0,70,30.03,10.0,Calm,Calm,-,N/A,,Clear,0,2013-10-15 11:55:00
5:15 AM,42.8,32.0,66,30.03,10.0,Calm,Calm,-,N/A,,Clear,0,2013-10-15 12:15:00
5:35 AM,42.8,35.6,76,30.04,10.0,Calm,Calm,-,N/A,,Clear,0,2013-10-15 12:35:00
5:55 AM,42.8,35.6,76,30.03,10.0,Calm,Calm,-,N/A,,Clear,0,2013-10-15 12:55:00
6:15 AM,41.0,35.6,81,30.04,10.0,Calm,Calm,-,N/A,,Clear,0,2013-10-15 13:15:00
6:35 AM,44.6,35.6,71,30.04,10.0,Calm,Calm,-,N/A,,Clear,0,2013-10-15 13:35:00
6:55 AM,41.0,35.6,81,30.04,10.0,Calm,Calm,-,N/A,,Clear,0,2013-10-15 13:55:00
7:15 AM,41.0,35.6,81,30.04,10.0,SSW,3.5,-,N/A,,Clear,200,2013-10-15 14:15:00
7:35 AM,37.4,33.8,87,30.05,10.0,Calm,Calm,-,N/A,,Clear,0,2013-10-15 14:35:00
7:55 AM,42.8,37.4,81,30.05,10.0,Calm,Calm,-,N/A,,Clear,0,2013-10-15 14:55:00
8:15 AM,44.6,37.4,76,30.06,10.0,Calm,Calm,-,N/A,,Clear,0,2013-10-15 15:15:00
8:35 AM,48.2,37.4,66,30.06,10.0,Calm,Calm,-,N/A,,Clear,0,2013-10-15 15:35:00
8:55 AM,50.0,37.4,62,30.06,10.0,Calm,Calm,-,N/A,,Clear,0,2013-10-15 15:55:00
9:15 AM,53.6,39.2,58,30.06,10.0,Calm,Calm,-,N/A,,Clear,0,2013-10-15 16:15:00
9:35 AM,57.2,39.2,51,30.06,10.0,Calm,Calm,-,N/A,,Clear,0,2013-10-15 16:35:00
9:55 AM,59.0,37.4,45,30.06,10.0,Calm,Calm,-,N/A,,Clear,0,2013-10-15 16:55:00
10:15 AM,62.6,37.4,39,30.06,10.0,Calm,Calm,-,N/A,,Clear,0,2013-10-15 17:15:00
10:35 AM,66.2,35.6,32,30.05,10.0,SW,4.6,-,N/A,,Clear,220,2013-10-15 17:35:00
10:55 AM,68.0,35.6,30,30.05,10.0,SSW,4.6,-,N/A,,Clear,210,2013-10-15 17:55:00
11:15 AM,71.6,32.0,23,30.05,10.0,SE,4.6,-,N/A,,Clear,140,2013-10-15 18:15:00
11:35 AM,73.4,32.0,22,30.04,10.0,SSE,4.6,-,N/A,,Clear,150,2013-10-15 18:35:00
11:55 AM,73.4,32.0,22,30.04,10.0,SSW,3.5,-,N/A,,Clear,200,2013-10-15 18:55:00
12:15 PM,75.2,32.0,21,30.03,10.0,SSE,3.5,-,N/A,Rain,Light Rain,150,2013-10-15 19:15:00
12:35 PM,75.2,32.0,21,30.02,10.0,ESE,3.5,-,N/A,Rain,Light Rain,120,2013-10-15 19:35:00
12:55 PM,77.0,32.0,19,30.02,10.0,SE,5.8,-,N/A,Rain,Light Rain,140,2013-10-15 19:55:00
1:15 PM,77.0,32.0,19,30.01,10.0,ESE,3.5,-,N/A,Rain,Light Rain,120,2013-10-15 20:15:00
1:35 PM,77.0,32.0,19,30.00,10.0,South,3.5,-,N/A,,Clear,180,2013-10-15 20:35:00
1:55 PM,78.8,30.2,17,29.99,10.0,South,6.9,-,N/A,,Clear,180,2013-10-15 20:55:00
2:15 PM,78.8,28.4,16,29.98,5.0,SE,5.8,-,N/A,,Haze,130,2013-10-15 21:15:00
2:35 PM,80.6,28.4,15,29.98,10.0,ESE,5.8,-,N/A,,Clear,110,2013-10-15 21:35:00
2:55 PM,78.8,28.4,16,29.98,10.0,SE,5.8,-,N/A,,Clear,140,2013-10-15 21:55:00
3:15 PM,80.6,26.6,14,29.97,10.0,SE,5.8,-,N/A,,Clear,140,2013-10-15 22:15:00
3:35 PM,80.6,26.6,14,29.97,10.0,Calm,Calm,-,N/A,,Clear,0,2013-10-15 22:35:00
3:55 PM,80.6,26.6,14,29.96,10.0,WSW,3.5,-,N/A,,Clear,250,2013-10-15 22:55:00
4:15 PM,82.4,26.6,13,29.96,10.0,South,6.9,-,N/A,,Clear,190,2013-10-15 23:15:00
4:35 PM,82.4,26.6,13,29.96,10.0,SE,3.5,-,N/A,,Clear,130,2013-10-15 23:35:00
4:55 PM,82.4,26.6,13,29.96,10.0,Calm,Calm,-,N/A,,Clear,0,2013-10-15 23:55:00
5:15 PM,80.6,32.0,17,29.96,10.0,West,4.6,-,N/A,,Clear,280,2013-10-16 00:15:00
5:55 PM,73.4,30.2,20,29.97,10.0,North,8.1,-,N/A,,Clear,10,2013-10-16 00:55:00
6:15 PM,69.8,30.2,23,29.96,10.0,NNW,8.1,-,N/A,,Clear,340,2013-10-16 01:15:00
6:35 PM,68.0,28.4,23,29.97,10.0,North,9.2,-,N/A,,Clear,350,2013-10-16 01:35:00
6:55 PM,66.2,28.4,24,29.97,10.0,NNW,3.5,-,N/A,,Clear,340,2013-10-16 01:55:00
7:15 PM,62.6,28.4,27,29.97,10.0,NNW,5.8,-,N/A,,Unknown,330,2013-10-16 02:15:00
7:35 PM,62.6,28.4,27,29.98,10.0,Calm,Calm,-,N/A,,Unknown,0,2013-10-16 02:35:00
7:55 PM,59.0,30.2,34,29.98,10.0,Calm,Calm,-,N/A,,Unknown,0,2013-10-16 02:55:00
8:15 PM,59.0,28.4,31,29.98,10.0,Calm,Calm,-,N/A,,Unknown,0,2013-10-16 03:15:00
8:35 PM,55.4,28.4,36,29.98,10.0,Calm,Calm,-,N/A,,Unknown,0,2013-10-16 03:35:00
8:55 PM,57.2,32.0,38,29.98,10.0,Calm,Calm,-,N/A,,Unknown,0,2013-10-16 03:55:00
9:15 PM,55.4,32.0,41,29.99,10.0,Calm,Calm,-,N/A,,Unknown,0,2013-10-16 04:15:00
9:35 PM,53.6,30.2,41,29.99,10.0,Calm,Calm,-,N/A,,Unknown,0,2013-10-16 04:35:00
9:55 PM,55.4,33.8,44,29.99,10.0,Calm,Calm,-,N/A,,Clear,0,2013-10-16 04:55:00
10:15 PM,50.0,32.0,50,30.00,10.0,Calm,Calm,-,N/A,,Clear,0,2013-10-16 05:15:00
10:35 PM,48.2,32.0,54,30.00,10.0,Calm,Calm,-,N/A,,Clear,0,2013-10-16 05:35:00
10:55 PM,50.0,32.0,50,30.00,10.0,Calm,Calm,-,N/A,,Clear,0,2013-10-16 05:55:00
11:15 PM,53.6,35.6,51,30.00,10.0,SSW,3.5,-,N/A,,Clear,200,2013-10-16 06:15:00
11:35 PM,51.8,33.8,50,30.00,10.0,Calm,Calm,-,N/A,,Clear,0,2013-10-16 06:35:00
11:55 PM,50.0,33.8,54,30.00,10.0,Calm,Calm,-,N/A,,Clear,0,2013-10-16 06:55:00